THORAD AGENA D DEB, 42502

Orbit data source: Space-Track

THORAD AGENA D DEB, 42502 is space debris in SSO originally from a launch on Wed, 08 Apr 1970 UTC launched from the Air Force Western Test Range (AFWTR). Debris objects in space refer to the collection of defunct objects orbiting the Earth. Examples of debris include non-operational satellites, rocket bodies, and fragments generated from explosions, collisions, or faulty payload assembly.

Loading next visibility...
Identifier
42502, 1970-025RG
Orbit
SSO
Country
Flag of USUS
Related business
Manufacturer
Unknown
Mission
Spacecraft
Bus & Motor
Unknown
Mass
Unknown
Launch date (UTC)
1970-04-08 (56 years ago)
Launch vehicle
Unknown
Launch site
Air Force Western Test Range (AFWTR)
Object type
Payload
Rocket body
Debris
Shape & HBR
Unknown shape, 0.1 m
Radar Cross Section
Small (<0.1 m²)

Expand to show TLE details & history
Last TLE update: 15 hours ago

TLE from 15 hours ago
0 THORAD AGENA D DEB
1 42502U 70025RG  26126.24892913  .00000020  00000-0  93498-4 0  9991
2 42502  99.7257  40.3325 0013455 318.4749 193.6696 13.54863429615710
Epoch: 2026-05-06T05:58Z
TLE epoch observation values (Epoch: 2026-05-06T05:58:27.476Z)
Latitude
27.49705°
Longitude
-88.30227°
Altitude
1,067.399 km
Speed
7.316 km/s
True Right ascension
15h 01m 41s
True Declination
27° 21' 44"
Sunlit
Object was in full shadow at epoch
Visualization orbit readout
Latitude
Unknown
Longitude
Unknown
Altitude
Unknown
Speed
Unknown
Apparent Right ascension
Unknown
Apparent Declination
Unknown
Sunlit
N/A
Visualization observer readout
Local Sidereal Time
05:05:19
Azimuth
Unknown
Elevation
Unknown
Doppler factor
Unknown
Orbital elements
Apogee altitude
1,061.712 km
Perigee altitude
1,041.718 km
Semi-major axis
7,429.852 km
Eccentricity
0.00135
Inclination
99.7257°
RAAN
40.3325°
Arg. of periapsis
318.4749°
True anomaly
193.63322°
Mean anomaly
193.6696°
Eccentric anomaly
193.65141°
Mean motion
3.38901 °/min
Orbital period
106.23 mins
BSTAR
0.000093498
Loading maneuver chart data...
Computing Atmospheric mass density...

Documentation

Showing up to 5 results
|